Overview Statistics Trail Chart Weather Telemetry Raw packets
 

This is the latest recevied weather packets stored in our database for station/object SQ9SMC-13. If no packets are shown the sender has not sent any weather packets the latest 10 day(s).

<< 60 61 62 63 64 65 66 >>
Time Temp. Humidity Pressure Rain* Wind** Luminosity Snow
1777293603 14.44° C 26% 1023.8 hPa 0 mm - 560 W/m² -
1777293304 14.44° C 27% 1023.9 hPa 0 mm - 566 W/m² -
1777293002 15° C 27% 1023.7 hPa 0 mm - 571 W/m² -
1777292703 14.44° C 27% 1023.7 hPa 0 mm - 578 W/m² -
1777292404 14.44° C 28% 1024.1 hPa 0 mm - 585 W/m² -
1777292103 14.44° C 27% 1024.1 hPa 0 mm - 591 W/m² -
1777291803 14.44° C 27% 1023.9 hPa 0 mm - 596 W/m² -
1777291504 13.89° C 29% 1024 hPa 0 mm - 602 W/m² -
1777291203 13.89° C 27% 1024.2 hPa 0 mm - 606 W/m² -
1777290903 13.89° C 29% 1024.2 hPa 0 mm - 613 W/m² -
1777290603 14.44° C 26% 1024.1 hPa 0 mm - 617 W/m² -
1777290306 14.44° C 27% 1024.3 hPa 0 mm - 622 W/m² -
1777290002 13.89° C 27% 1024.4 hPa 0 mm - 627 W/m² -
1777289705 13.89° C 28% 1024.1 hPa 0 mm - 630 W/m² -
1777289404 13.89° C 27% 1024.4 hPa 0 mm - 635 W/m² -
1777289102 13.89° C 26% 1024.3 hPa 0 mm - 637 W/m² -
1777288802 13.89° C 26% 1024.5 hPa 0 mm - 640 W/m² -
1777288503 13.89° C 28% 1024.3 hPa 0 mm - 642 W/m² -
1777288202 13.89° C 29% 1024.3 hPa 0 mm - 644 W/m² -
1777287903 13.89° C 26% 1024.3 hPa 0 mm - 646 W/m² -
1777287603 13.33° C 30% 1024.5 hPa 0 mm - 644 W/m² -
1777287304 13.33° C 28% 1024.5 hPa 0 mm - 641 W/m² -
1777287003 13.89° C 26% 1024.4 hPa 0 mm - 642 W/m² -
1777286702 13.33° C 28% 1024.6 hPa 0 mm - 640 W/m² -
1777286403 13.33° C 31% 1024.5 hPa 0 mm - 637 W/m² -

* Rain latest hour (hover to see other rain measurements)
** Current wind speed in m/s (hover to see current wind gust speed)